Location: Oshawa
(43.9000°N, 78.8670°W)
Time: 02:59:08
(UTC-04:00)

Transit 2A Rocket - Visible Passes

Search period start: 26 October 2014 00:00
Search period end: 04 November 2014 23:00
Orbit: 591 x 917 km, 66.7° (Epoch: 25 October)

Date Brightness Start Highest point End Pass type
(mag) Time Alt. Az. Time Alt. Az. Time Alt. Az.
26 Oct 7.2 19:40:55 10° WNW 19:43:45 16° NW 19:46:42 10° N visible
27 Oct 6.7 18:57:59 10° W 19:01:36 24° NW 19:05:28 10° N visible
29 Oct 7.3 19:19:30 10° WNW 19:21:25 12° NNW 19:23:23 10° N visible
30 Oct 7.0 18:36:04 10° W 18:39:10 18° NW 18:42:26 10° N visible
